Simultaneous Nadir Overpasses (SNOs) Predictions

Prediction of SNOs between GOES-16 and METOP-B Satellite Orbit:

Table of predicted SNOs for the next 14.0 days since TLE Epoch: 7/31/2020
Index Date Time (GOES-16) GOES-16 Lat,Lon METOP-B Lat,Lon Distance(km) Time Diff (sec)
1 08/01/2020 02:26:27 0.02, -75.18 0.20, -74.42 86.20 80
2 08/02/2020 14:47:59 -0.02, -75.19 0.81, -78.99 431.74 80
3 08/03/2020 14:24:39 -0.03, -75.20 -0.32, -74.00 137.79 80
4 08/05/2020 02:46:18 0.02, -75.19 -0.76, -78.58 386.16 80
5 08/06/2020 02:22:58 0.03, -75.20 0.38, -73.59 183.77 80
6 08/07/2020 14:44:29 -0.03, -75.23 0.63, -78.15 332.56 80
7 08/08/2020 14:21:10 -0.04, -75.25 -0.51, -73.16 237.95 80
8 08/10/2020 02:42:49 0.03, -75.25 -0.51, -77.75 284.46 80
9 08/11/2020 02:19:30 0.04, -75.27 0.62, -72.76 286.23 80
10 08/12/2020 14:41:00 -0.03, -75.31 0.44, -77.31 229.24 80
11 08/13/2020 14:17:41 -0.03, -75.32 -0.70, -72.32 341.69 80
